Time,TemperatureF,DewpointF,PressureIn,WindDirection,WindDirectionDegrees,WindSpeedMPH,WindSpeedGustMPH,Humidity,HourlyPrecipIn,Conditions,Clouds,dailyrainin,SoftwareType,DateUTC
2013-04-14 00:02:00,25.0,13.0,-100.00,West,276,9.0,18.0,58,-99.99,,,-99.99,,2013-04-14 06:02:00,
2013-04-14 00:11:00,24.0,11.0,-100.00,West,272,13.0,27.0,55,-99.99,,,-99.99,,2013-04-14 06:11:00,
2013-04-14 00:22:00,24.0,11.0,-100.00,West,272,13.0,27.0,55,-99.99,,,-99.99,,2013-04-14 06:22:00,
2013-04-14 00:42:00,24.0,9.0,-100.00,West,277,12.0,23.0,52,-99.99,,,-99.99,,2013-04-14 06:42:00,
2013-04-14 00:52:00,24.0,9.0,-100.00,West,277,12.0,23.0,52,-99.99,,,-99.99,,2013-04-14 06:52:00,
2013-04-14 01:02:00,23.0,9.0,-100.00,West,273,9.0,19.0,55,-99.99,,,-99.99,,2013-04-14 07:02:00,
2013-04-14 01:12:00,23.0,9.0,-100.00,West,269,10.0,25.0,55,-99.99,,,-99.99,,2013-04-14 07:12:00,
2013-04-14 01:22:00,23.0,9.0,-100.00,West,269,10.0,25.0,55,-99.99,,,-99.99,,2013-04-14 07:22:00,
2013-04-14 01:32:00,23.0,9.0,-100.00,West,269,10.0,25.0,55,-99.99,,,-99.99,,2013-04-14 07:32:00,
2013-04-14 01:42:00,22.0,9.0,-100.00,West,268,11.0,24.0,56,-99.99,,,-99.99,,2013-04-14 07:42:00,
2013-04-14 01:52:00,22.0,9.0,-100.00,West,268,11.0,24.0,56,-99.99,,,-99.99,,2013-04-14 07:52:00,
2013-04-14 02:02:00,22.0,9.0,-100.00,West,268,11.0,24.0,56,-99.99,,,-99.99,,2013-04-14 08:02:00,
2013-04-14 02:12:00,21.0,6.0,-100.00,West,271,11.0,30.0,50,-99.99,,,-99.99,,2013-04-14 08:12:00,
2013-04-14 02:22:00,21.0,6.0,-100.00,West,271,11.0,30.0,50,-99.99,,,-99.99,,2013-04-14 08:22:00,
2013-04-14 02:32:00,21.0,6.0,-100.00,West,271,11.0,30.0,50,-99.99,,,-99.99,,2013-04-14 08:32:00,
2013-04-14 02:42:00,21.0,6.0,-100.00,West,270,11.0,23.0,51,-99.99,,,-99.99,,2013-04-14 08:42:00,
2013-04-14 02:52:00,21.0,6.0,-100.00,West,270,11.0,23.0,51,-99.99,,,-99.99,,2013-04-14 08:52:00,
2013-04-14 03:02:00,21.0,4.0,-100.00,West,261,9.0,17.0,49,-99.99,,,-99.99,,2013-04-14 09:02:00,
2013-04-14 03:12:00,20.0,3.0,-100.00,West,267,7.0,16.0,46,-99.99,,,-99.99,,2013-04-14 09:12:00,
2013-04-14 03:22:00,20.0,3.0,-100.00,West,267,7.0,16.0,46,-99.99,,,-99.99,,2013-04-14 09:22:00,
2013-04-14 03:32:00,20.0,3.0,-100.00,West,267,7.0,16.0,46,-99.99,,,-99.99,,2013-04-14 09:32:00,
2013-04-14 03:42:00,20.0,0.0,-100.00,WSW,258,7.0,15.0,39,-99.99,,,-99.99,,2013-04-14 09:42:00,
2013-04-14 03:53:00,20.0,0.0,-100.00,WSW,258,7.0,15.0,39,-99.99,,,-99.99,,2013-04-14 09:53:00,
2013-04-14 04:03:00,20.0,-3.0,-100.00,West,265,7.0,17.0,36,-99.99,,,-99.99,,2013-04-14 10:03:00,
2013-04-14 04:12:00,20.0,-4.0,-100.00,West,266,7.0,16.0,34,-99.99,,,-99.99,,2013-04-14 10:12:00,
2013-04-14 04:22:00,20.0,-4.0,-100.00,West,266,7.0,16.0,34,-99.99,,,-99.99,,2013-04-14 10:22:00,
2013-04-14 04:32:00,20.0,-4.0,-100.00,West,266,7.0,16.0,34,-99.99,,,-99.99,,2013-04-14 10:32:00,
2013-04-14 04:42:00,19.0,-3.0,-100.00,West,266,8.0,16.0,36,-99.99,,,-99.99,,2013-04-14 10:42:00,
2013-04-14 04:52:00,19.0,-3.0,-100.00,West,266,8.0,16.0,36,-99.99,,,-99.99,,2013-04-14 10:52:00,
2013-04-14 05:02:00,19.0,-4.0,-100.00,West,264,11.0,24.0,34,-99.99,,,-99.99,,2013-04-14 11:02:00,
2013-04-14 05:12:00,19.0,-2.0,-100.00,WSW,255,10.0,20.0,39,-99.99,,,-99.99,,2013-04-14 11:12:00,
2013-04-14 05:22:00,19.0,-2.0,-100.00,WSW,255,10.0,20.0,39,-99.99,,,-99.99,,2013-04-14 11:22:00,
2013-04-14 05:32:00,19.0,-2.0,-100.00,WSW,255,10.0,20.0,39,-99.99,,,-99.99,,2013-04-14 11:32:00,
2013-04-14 05:42:00,19.0,-4.0,-100.00,West,266,7.0,14.0,35,-99.99,,,-99.99,,2013-04-14 11:42:00,
2013-04-14 05:53:00,19.0,-4.0,-100.00,West,266,7.0,14.0,35,-99.99,,,-99.99,,2013-04-14 11:53:00,
2013-04-14 06:02:00,19.0,-5.0,-100.00,West,260,9.0,20.0,33,-99.99,,,-99.99,,2013-04-14 12:02:00,
2013-04-14 06:12:00,19.0,-5.0,-100.00,WSW,250,7.0,20.0,33,-99.99,,,-99.99,,2013-04-14 12:12:00,
2013-04-14 06:21:00,19.0,-5.0,-100.00,WSW,250,7.0,20.0,33,-99.99,,,-99.99,,2013-04-14 12:21:00,
2013-04-14 06:32:00,19.0,-5.0,-100.00,WSW,250,7.0,20.0,33,-99.99,,,-99.99,,2013-04-14 12:32:00,
2013-04-14 06:42:00,18.0,-4.0,-100.00,WSW,247,9.0,17.0,36,-99.99,,,-99.99,,2013-04-14 12:42:00,
2013-04-14 06:52:00,18.0,-4.0,-100.00,WSW,247,9.0,17.0,36,-99.99,,,-99.99,,2013-04-14 12:52:00,
2013-04-14 07:02:00,18.0,-4.0,-100.00,WSW,250,6.0,14.0,35,-99.99,,,-99.99,,2013-04-14 13:02:00,
2013-04-14 07:12:00,18.0,-5.0,-100.00,WSW,248,8.0,16.0,34,-99.99,,,-99.99,,2013-04-14 13:12:00,
2013-04-14 07:22:00,18.0,-5.0,-100.00,WSW,248,8.0,16.0,34,-99.99,,,-99.99,,2013-04-14 13:22:00,
2013-04-14 07:32:00,18.0,-5.0,-100.00,WSW,248,8.0,16.0,34,-99.99,,,-99.99,,2013-04-14 13:32:00,
2013-04-14 07:42:00,19.0,-6.0,-100.00,WSW,253,7.0,18.0,31,-99.99,,,-99.99,,2013-04-14 13:42:00,
2013-04-14 07:52:00,19.0,-6.0,-100.00,WSW,253,7.0,18.0,31,-99.99,,,-99.99,,2013-04-14 13:52:00,
2013-04-14 08:02:00,19.0,-7.0,-100.00,WSW,251,10.0,20.0,30,-99.99,,,-99.99,,2013-04-14 14:02:00,
2013-04-14 08:12:00,19.0,-7.0,-100.00,West,262,6.0,20.0,29,-99.99,,,-99.99,,2013-04-14 14:12:00,
2013-04-14 08:22:00,19.0,-7.0,-100.00,West,262,6.0,20.0,29,-99.99,,,-99.99,,2013-04-14 14:22:00,
2013-04-14 08:32:00,19.0,-7.0,-100.00,West,262,6.0,20.0,29,-99.99,,,-99.99,,2013-04-14 14:32:00,
2013-04-14 08:42:00,20.0,-4.0,-100.00,West,277,5.0,15.0,33,-99.99,,,-99.99,,2013-04-14 14:42:00,
2013-04-14 08:53:00,20.0,-4.0,-100.00,West,277,5.0,15.0,33,-99.99,,,-99.99,,2013-04-14 14:53:00,
2013-04-14 09:02:00,20.0,-2.0,-100.00,West,261,5.0,12.0,36,-99.99,,,-99.99,,2013-04-14 15:02:00,
2013-04-14 09:12:00,21.0,1.0,-100.00,West,267,5.0,11.0,40,-99.99,,,-99.99,,2013-04-14 15:12:00,
2013-04-14 09:22:00,21.0,1.0,-100.00,West,267,5.0,11.0,40,-99.99,,,-99.99,,2013-04-14 15:22:00,
2013-04-14 09:33:00,21.0,1.0,-100.00,West,267,5.0,11.0,40,-99.99,,,-99.99,,2013-04-14 15:33:00,
2013-04-14 09:43:00,22.0,5.0,-100.00,West,270,3.0,11.0,48,-99.99,,,-99.99,,2013-04-14 15:43:00,
2013-04-14 09:53:00,22.0,5.0,-100.00,West,270,3.0,11.0,48,-99.99,,,-99.99,,2013-04-14 15:53:00,
2013-04-14 10:04:00,22.0,6.0,-100.00,SW,227,4.0,11.0,48,-99.99,,,-99.99,,2013-04-14 16:04:00,
2013-04-14 10:13:00,23.0,6.0,-100.00,WSW,241,5.0,13.0,48,-99.99,,,-99.99,,2013-04-14 16:13:00,
2013-04-14 10:22:00,23.0,6.0,-100.00,WSW,241,5.0,13.0,48,-99.99,,,-99.99,,2013-04-14 16:22:00,
2013-04-14 10:32:00,23.0,6.0,-100.00,WSW,241,5.0,13.0,48,-99.99,,,-99.99,,2013-04-14 16:32:00,
2013-04-14 10:43:00,24.0,5.0,-100.00,WSW,238,4.0,11.0,43,-99.99,,,-99.99,,2013-04-14 16:43:00,
2013-04-14 10:53:00,24.0,5.0,-100.00,WSW,238,4.0,11.0,43,-99.99,,,-99.99,,2013-04-14 16:53:00,
2013-04-14 11:02:00,24.0,2.0,-100.00,SW,224,4.0,13.0,38,-99.99,,,-99.99,,2013-04-14 17:02:00,
2013-04-14 11:12:00,24.0,1.0,-100.00,SW,226,7.0,16.0,36,-99.99,,,-99.99,,2013-04-14 17:12:00,
2013-04-14 11:22:00,24.0,1.0,-100.00,SW,226,7.0,16.0,36,-99.99,,,-99.99,,2013-04-14 17:22:00,
2013-04-14 11:32:00,24.0,1.0,-100.00,SW,226,7.0,16.0,36,-99.99,,,-99.99,,2013-04-14 17:32:00,
2013-04-14 11:42:00,24.0,2.0,-100.00,WSW,246,4.0,15.0,37,-99.99,,,-99.99,,2013-04-14 17:42:00,
2013-04-14 11:53:00,24.0,2.0,-100.00,WSW,246,4.0,15.0,37,-99.99,,,-99.99,,2013-04-14 17:53:00,
2013-04-14 12:02:00,25.0,2.0,-100.00,WSW,250,9.0,17.0,36,-99.99,,,-99.99,,2013-04-14 18:02:00,
2013-04-14 12:12:00,25.0,3.0,-100.00,WSW,247,5.0,21.0,38,-99.99,,,-99.99,,2013-04-14 18:12:00,
2013-04-14 12:22:00,25.0,3.0,-100.00,WSW,247,5.0,21.0,38,-99.99,,,-99.99,,2013-04-14 18:22:00,
2013-04-14 12:32:00,25.0,3.0,-100.00,WSW,247,5.0,21.0,38,-99.99,,,-99.99,,2013-04-14 18:32:00,
2013-04-14 12:42:00,27.0,3.0,-100.00,West,260,4.0,9.0,34,-99.99,,,-99.99,,2013-04-14 18:42:00,
2013-04-14 12:53:00,27.0,3.0,-100.00,West,260,4.0,9.0,34,-99.99,,,-99.99,,2013-04-14 18:53:00,
2013-04-14 13:03:00,27.0,2.0,-100.00,SW,223,5.0,12.0,33,-99.99,,,-99.99,,2013-04-14 19:03:00,
2013-04-14 13:12:00,28.0,2.0,-100.00,SSW,203,5.0,11.0,32,-99.99,,,-99.99,,2013-04-14 19:12:00,
2013-04-14 13:22:00,28.0,2.0,-100.00,SSW,203,5.0,11.0,32,-99.99,,,-99.99,,2013-04-14 19:22:00,
2013-04-14 13:32:00,28.0,2.0,-100.00,SSW,203,5.0,11.0,32,-99.99,,,-99.99,,2013-04-14 19:32:00,
2013-04-14 13:42:00,29.0,2.0,-100.00,WSW,244,5.0,12.0,31,-99.99,,,-99.99,,2013-04-14 19:42:00,
2013-04-14 13:52:00,29.0,2.0,-100.00,WSW,244,5.0,12.0,31,-99.99,,,-99.99,,2013-04-14 19:52:00,
2013-04-14 14:02:00,30.0,0.0,-100.00,WSW,241,6.0,16.0,27,-99.99,,,-99.99,,2013-04-14 20:02:00,
2013-04-14 14:12:00,30.0,0.0,-100.00,SW,224,6.0,14.0,26,-99.99,,,-99.99,,2013-04-14 20:12:00,
2013-04-14 14:22:00,30.0,0.0,-100.00,SW,224,6.0,14.0,26,-99.99,,,-99.99,,2013-04-14 20:22:00,
2013-04-14 14:32:00,30.0,0.0,-100.00,SW,224,6.0,14.0,26,-99.99,,,-99.99,,2013-04-14 20:32:00,
2013-04-14 14:42:00,31.0,-2.0,-100.00,WSW,249,9.0,18.0,22,-99.99,,,-99.99,,2013-04-14 20:42:00,
2013-04-14 14:52:00,31.0,-2.0,-100.00,WSW,249,9.0,18.0,22,-99.99,,,-99.99,,2013-04-14 20:52:00,
2013-04-14 15:02:00,32.0,0.0,-100.00,SW,226,5.0,18.0,24,-99.99,,,-99.99,,2013-04-14 21:02:00,
2013-04-14 15:12:00,33.0,0.0,-100.00,WSW,248,5.0,13.0,23,-99.99,,,-99.99,,2013-04-14 21:12:00,
2013-04-14 15:22:00,33.0,0.0,-100.00,WSW,248,5.0,13.0,23,-99.99,,,-99.99,,2013-04-14 21:22:00,
2013-04-14 15:32:00,33.0,0.0,-100.00,WSW,248,5.0,13.0,23,-99.99,,,-99.99,,2013-04-14 21:32:00,
2013-04-14 15:43:00,33.0,0.0,-100.00,SW,226,3.0,8.0,24,-99.99,,,-99.99,,2013-04-14 21:43:00,
2013-04-14 15:53:00,33.0,0.0,-100.00,SW,226,3.0,8.0,24,-99.99,,,-99.99,,2013-04-14 21:53:00,
2013-04-14 16:02:00,32.0,-1.0,-100.00,East,80,3.0,10.0,22,-99.99,,,-99.99,,2013-04-14 22:02:00,
2013-04-14 16:12:00,33.0,-1.0,-100.00,SE,140,4.0,10.0,22,-99.99,,,-99.99,,2013-04-14 22:12:00,
2013-04-14 16:22:00,33.0,-1.0,-100.00,SE,140,4.0,10.0,22,-99.99,,,-99.99,,2013-04-14 22:22:00,
2013-04-14 16:32:00,33.0,-1.0,-100.00,SE,140,4.0,10.0,22,-99.99,,,-99.99,,2013-04-14 22:32:00,
2013-04-14 16:43:00,34.0,-2.0,-100.00,NNE,21,4.0,12.0,21,-99.99,,,-99.99,,2013-04-14 22:43:00,
2013-04-14 16:52:00,34.0,-2.0,-100.00,NNE,21,4.0,12.0,21,-99.99,,,-99.99,,2013-04-14 22:52:00,
2013-04-14 17:02:00,33.0,-2.0,-100.00,WSW,252,5.0,12.0,20,-99.99,,,-99.99,,2013-04-14 23:02:00,
2013-04-14 17:12:00,33.0,-2.0,-100.00,SSW,211,2.0,8.0,21,-99.99,,,-99.99,,2013-04-14 23:12:00,
2013-04-14 17:22:00,33.0,-2.0,-100.00,SSW,211,2.0,8.0,21,-99.99,,,-99.99,,2013-04-14 23:22:00,
2013-04-14 17:32:00,33.0,-2.0,-100.00,SSW,211,2.0,8.0,21,-99.99,,,-99.99,,2013-04-14 23:32:00,
2013-04-14 17:42:00,32.0,-1.0,-100.00,ENE,67,4.0,10.0,23,-99.99,,,-99.99,,2013-04-14 23:42:00,
2013-04-14 17:53:00,32.0,-1.0,-100.00,ENE,67,4.0,10.0,23,-99.99,,,-99.99,,2013-04-14 23:53:00,
2013-04-14 18:02:00,32.0,1.0,-100.00,East,87,3.0,7.0,26,-99.99,,,-99.99,,2013-04-15 00:02:00,
2013-04-14 18:12:00,31.0,3.0,-100.00,ENE,70,3.0,6.0,29,-99.99,,,-99.99,,2013-04-15 00:12:00,
2013-04-14 18:22:00,31.0,3.0,-100.00,ENE,70,3.0,6.0,29,-99.99,,,-99.99,,2013-04-15 00:22:00,
2013-04-14 18:32:00,31.0,3.0,-100.00,ENE,70,3.0,6.0,29,-99.99,,,-99.99,,2013-04-15 00:32:00,
2013-04-14 18:42:00,28.0,9.0,-100.00,North,9,4.0,8.0,43,-99.99,,,-99.99,,2013-04-15 00:42:00,
2013-04-14 18:52:00,28.0,9.0,-100.00,North,9,4.0,8.0,43,-99.99,,,-99.99,,2013-04-15 00:52:00,
2013-04-14 19:02:00,29.0,9.0,-100.00,North,354,4.0,9.0,42,-99.99,,,-99.99,,2013-04-15 01:02:00,
2013-04-14 19:12:00,29.0,9.0,-100.00,NW,309,3.0,5.0,41,-99.99,,,-99.99,,2013-04-15 01:12:00,
2013-04-14 19:22:00,29.0,9.0,-100.00,NW,309,3.0,5.0,41,-99.99,,,-99.99,,2013-04-15 01:22:00,
2013-04-14 19:32:00,29.0,9.0,-100.00,NW,309,3.0,5.0,41,-99.99,,,-99.99,,2013-04-15 01:32:00,
2013-04-14 19:42:00,29.0,8.0,-100.00,NNW,348,3.0,6.0,41,-99.99,,,-99.99,,2013-04-15 01:42:00,
2013-04-14 19:52:00,29.0,8.0,-100.00,NNW,348,3.0,6.0,41,-99.99,,,-99.99,,2013-04-15 01:52:00,
2013-04-14 20:02:00,28.0,9.0,-100.00,North,354,4.0,10.0,42,-99.99,,,-99.99,,2013-04-15 02:02:00,
2013-04-14 20:12:00,26.0,7.0,-100.00,North,9,6.0,11.0,43,-99.99,,,-99.99,,2013-04-15 02:12:00,
2013-04-14 20:22:00,26.0,7.0,-100.00,North,9,6.0,11.0,43,-99.99,,,-99.99,,2013-04-15 02:22:00,
2013-04-14 20:32:00,26.0,7.0,-100.00,North,9,6.0,11.0,43,-99.99,,,-99.99,,2013-04-15 02:32:00,
2013-04-14 20:42:00,25.0,6.0,-100.00,ENE,71,1.0,5.0,42,-99.99,,,-99.99,,2013-04-15 02:42:00,
2013-04-14 20:52:00,25.0,6.0,-100.00,ENE,71,1.0,5.0,42,-99.99,,,-99.99,,2013-04-15 02:52:00,
2013-04-14 21:02:00,26.0,6.0,-100.00,NW,320,4.0,7.0,43,-99.99,,,-99.99,,2013-04-15 03:02:00,
2013-04-14 21:12:00,25.0,6.0,-100.00,NW,309,4.0,7.0,43,-99.99,,,-99.99,,2013-04-15 03:12:00,
2013-04-14 21:22:00,25.0,6.0,-100.00,NW,309,4.0,7.0,43,-99.99,,,-99.99,,2013-04-15 03:22:00,
2013-04-14 21:32:00,25.0,6.0,-100.00,NW,309,4.0,7.0,43,-99.99,,,-99.99,,2013-04-15 03:32:00,
2013-04-14 21:43:00,25.0,6.0,-100.00,NW,322,4.0,10.0,43,-99.99,,,-99.99,,2013-04-15 03:43:00,
2013-04-14 21:54:00,25.0,6.0,-100.00,NW,322,4.0,10.0,43,-99.99,,,-99.99,,2013-04-15 03:54:00,
2013-04-14 22:02:00,24.0,6.0,-100.00,North,1,3.0,8.0,43,-99.99,,,-99.99,,2013-04-15 04:02:00,
2013-04-14 22:12:00,24.0,9.0,-100.00,NNW,341,4.0,10.0,52,-99.99,,,-99.99,,2013-04-15 04:12:00,
2013-04-14 22:22:00,24.0,9.0,-100.00,NNW,341,4.0,10.0,52,-99.99,,,-99.99,,2013-04-15 04:22:00,
2013-04-14 22:32:00,24.0,9.0,-100.00,NNW,341,4.0,10.0,52,-99.99,,,-99.99,,2013-04-15 04:32:00,
2013-04-14 22:42:00,23.0,14.0,-100.00,NW,317,2.0,6.0,67,-99.99,,,-99.99,,2013-04-15 04:42:00,
2013-04-14 22:52:00,23.0,14.0,-100.00,NW,317,2.0,6.0,67,-99.99,,,-99.99,,2013-04-15 04:52:00,
2013-04-14 23:02:00,23.0,15.0,-100.00,NW,315,2.0,4.0,72,-99.99,,,-99.99,,2013-04-15 05:02:00,
2013-04-14 23:12:00,21.0,16.0,-100.00,North,3,4.0,8.0,81,-99.99,,,-99.99,,2013-04-15 05:12:00,
2013-04-14 23:22:00,21.0,16.0,-100.00,North,3,4.0,8.0,81,-99.99,,,-99.99,,2013-04-15 05:22:00,
2013-04-14 23:32:00,21.0,16.0,-100.00,North,3,4.0,8.0,81,-99.99,,,-99.99,,2013-04-15 05:32:00,
2013-04-14 23:42:00,20.0,18.0,-100.00,ENE,59,3.0,4.0,91,-99.99,,,-99.99,,2013-04-15 05:42:00,
2013-04-14 23:52:00,20.0,18.0,-100.00,ENE,59,3.0,4.0,91,-99.99,,,-99.99,,2013-04-15 05:52:00,